• In United Kingdom
  • List of Countries
  • For 7 days
  • Water Temperature
  • Satellite Maps
  • Weather Map
  • Weather Widgets
  • user-avatar
    Login

    Hourly Weather San Luis Potosí

    Today, 21 September, Thursday

    Time Temperature Precipitation Wind Pressure Humidity
    00:00 +18°C° 0 mm 2 mps 610 mmHg 92%
    01:00 +17°C° 0 mm 2 mps 610 mmHg 92%
    02:00 +17°C° 0 mm 2 mps 610 mmHg 92%
    03:00 +17°C° 0 mm 2 mps 610 mmHg 91%
    04:00 +18°C° 0 mm 1 mps 610 mmHg 90%
    05:00 +18°C° 0 mm 1 mps 610 mmHg 90%
    06:00 +19°C° 0 mm 1 mps 610 mmHg 85%
    07:00 +18°C° 0 mm 2 mps 611 mmHg 81%
    08:00 +19°C° 0 mm 2 mps 611 mmHg 77%
    09:00 +20°C° 0 mm 2 mps 611 mmHg 71%
    10:00 +23°C° 0 mm 2 mps 611 mmHg 66%
    11:00 +24°C° 0 mm 3 mps 611 mmHg 60%
    12:00 +25°C° 0 mm 3 mps 611 mmHg 56%
    13:00 +26°C° 0 mm 4 mps 611 mmHg 52%
    14:00 +27°C° 0 mm 5 mps 611 mmHg 49%
    15:00 +26°C° 0 mm 5 mps 610 mmHg 53%
    16:00 +25°C° 0 mm 5 mps 610 mmHg 58%
    17:00 +25°C° 0 mm 5 mps 609 mmHg 62%
    18:00 +22°C° 0.6 mm 5 mps 609 mmHg 70%
    19:00 +21°C° 0.6 mm 4 mps 610 mmHg 78%
    20:00 +19°C° 0.6 mm 3 mps 610 mmHg 86%
    21:00 +19°C° 0.1 mm 3 mps 610 mmHg 88%
    22:00 +18°C° 0.1 mm 3 mps 610 mmHg 90%
    23:00 +18°C° 0.1 mm 3 mps 610 mmHg 92%

    Tomorrow, 22 September, Friday

    Time Temperature Precipitation Wind Pressure Humidity
    00:00 +18°C° 0 mm 3 mps 610 mmHg 91%
    01:00 +18°C° 0 mm 2 mps 609 mmHg 89%
    02:00 +18°C° 0 mm 2 mps 609 mmHg 88%
    03:00 +17°C° 0 mm 2 mps 609 mmHg 88%
    04:00 +17°C° 0 mm 2 mps 609 mmHg 89%
    05:00 +17°C° 0 mm 2 mps 609 mmHg 89%
    06:00 +18°C° 0 mm 2 mps 609 mmHg 85%
    07:00 +19°C° 0 mm 2 mps 610 mmHg 80%
    08:00 +19°C° 0 mm 2 mps 610 mmHg 76%
    09:00 +21°C° 0 mm 3 mps 610 mmHg 70%
    10:00 +22°C° 0 mm 3 mps 611 mmHg 64%
    11:00 +24°C° 0 mm 3 mps 611 mmHg 59%
    12:00 +25°C° 0 mm 4 mps 610 mmHg 55%
    13:00 +26°C° 0 mm 5 mps 610 mmHg 51%
    14:00 +27°C° 0 mm 6 mps 610 mmHg 47%
    15:00 +26°C° 0 mm 6 mps 609 mmHg 51%
    16:00 +24°C° 0 mm 6 mps 609 mmHg 56%
    17:00 +23°C° 0 mm 6 mps 608 mmHg 60%
    18:00 +22°C° 0 mm 5 mps 608 mmHg 69%
    19:00 +20°C° 0 mm 5 mps 609 mmHg 77%
    20:00 +19°C° 0 mm 4 mps 609 mmHg 86%
    21:00 +18°C° 0 mm 4 mps 609 mmHg 87%
    22:00 +18°C° 0 mm 3 mps 609 mmHg 88%
    23:00 +18°C° 0 mm 3 mps 609 mmHg 89%

    Day after tomorrow, 23 September, Saturday

    Time Temperature Precipitation Wind Pressure Humidity
    00:00 +18°C° 0 mm 3 mps 609 mmHg 88%
    01:00 +18°C° 0 mm 2 mps 608 mmHg 87%
    02:00 +17°C° 0 mm 2 mps 608 mmHg 87%
    03:00 +17°C° 0 mm 2 mps 608 mmHg 88%
    04:00 +17°C° 0 mm 2 mps 608 mmHg 89%
    05:00 +17°C° 0 mm 2 mps 608 mmHg 91%
    06:00 +17°C° 0 mm 2 mps 608 mmHg 87%
    07:00 +18°C° 0 mm 2 mps 609 mmHg 82%
    08:00 +19°C° 0 mm 2 mps 609 mmHg 78%
    09:00 +20°C° 0 mm 3 mps 610 mmHg 72%
    10:00 +21°C° 0 mm 3 mps 610 mmHg 66%
    11:00 +22°C° 0 mm 3 mps 610 mmHg 61%
    12:00 +23°C° 0 mm 4 mps 609 mmHg 58%
    13:00 +25°C° 0 mm 4 mps 609 mmHg 55%
    14:00 +26°C° 0 mm 5 mps 608 mmHg 52%
    15:00 +25°C° 0 mm 5 mps 608 mmHg 56%
    16:00 +23°C° 0 mm 5 mps 608 mmHg 59%
    17:00 +22°C° 0 mm 5 mps 607 mmHg 63%
    18:00 +21°C° 0 mm 5 mps 608 mmHg 70%
    19:00 +20°C° 0 mm 4 mps 608 mmHg 78%
    20:00 +19°C° 0 mm 4 mps 608 mmHg 85%
    21:00 +18°C° 0 mm 3 mps 608 mmHg 87%
    22:00 +18°C° 0 mm 3 mps 608 mmHg 89%
    23:00 +17°C° 0 mm 3 mps 608 mmHg 91%

    24 September, Sunday

    Time Temperature Precipitation Wind Pressure Humidity
    00:00 +17°C° 0 mm 2 mps 608 mmHg 90%
    01:00 +17°C° 0 mm 2 mps 607 mmHg 89%
    02:00 +17°C° 0 mm 2 mps 607 mmHg 88%
    03:00 +17°C° 0 mm 2 mps 607 mmHg 88%
    04:00 +17°C° 0 mm 2 mps 607 mmHg 88%
    05:00 +18°C° 0 mm 1 mps 607 mmHg 88%
    06:00 +17°C° 0 mm 2 mps 608 mmHg 84%
    07:00 +18°C° 0 mm 2 mps 608 mmHg 80%
    08:00 +19°C° 0 mm 2 mps 609 mmHg 75%
    09:00 +20°C° 0 mm 2 mps 609 mmHg 70%
    10:00 +23°C° 0 mm 2 mps 609 mmHg 64%
    11:00 +24°C° 0 mm 3 mps 609 mmHg 58%
    12:00 +25°C° 0 mm 3 mps 608 mmHg 55%
    13:00 +26°C° 0 mm 4 mps 608 mmHg 52%
    14:00 +27°C° 0 mm 4 mps 608 mmHg 48%
    15:00 +26°C° 0 mm 4 mps 608 mmHg 53%
    16:00 +25°C° 0 mm 5 mps 607 mmHg 58%
    17:00 +23°C° 0 mm 5 mps 607 mmHg 62%
    18:00 +22°C° 0 mm 4 mps 607 mmHg 69%
    19:00 +20°C° 0 mm 3 mps 608 mmHg 75%
    20:00 +19°C° 0 mm 3 mps 608 mmHg 82%
    21:00 +19°C° 0 mm 2 mps 608 mmHg 84%
    22:00 +18°C° 0 mm 2 mps 608 mmHg 87%
    23:00 +18°C° 0 mm 2 mps 608 mmHg 90%

    25 September, Monday

    Time Temperature Precipitation Wind Pressure Humidity
    00:00 +18°C° 0 mm 2 mps 607 mmHg 89%
    01:00 +18°C° 0 mm 2 mps 607 mmHg 89%
    02:00 +18°C° 0 mm 2 mps 607 mmHg 89%
    03:00 +18°C° 0 mm 2 mps 607 mmHg 89%
    04:00 +18°C° 0 mm 2 mps 607 mmHg 88%
    05:00 +19°C° 0 mm 1 mps 607 mmHg 88%
    06:00 +19°C° 0 mm 1 mps 608 mmHg 85%
    07:00 +20°C° 0 mm 1 mps 608 mmHg 81%
    08:00 +20°C° 0 mm 1 mps 609 mmHg 78%
    09:00 +22°C° 0 mm 1 mps 609 mmHg 72%
    10:00 +23°C° 0 mm 1 mps 609 mmHg 66%
    11:00 +24°C° 0 mm 1 mps 609 mmHg 60%
    12:00 +25°C° 0 mm 1 mps 608 mmHg 55%
    13:00 +26°C° 0 mm 1 mps 608 mmHg 51%
    14:00 +27°C° 0 mm 2 mps 608 mmHg 46%
    15:00 +27°C° 0 mm 3 mps 608 mmHg 49%
    16:00 +26°C° 0 mm 4 mps 608 mmHg 51%
    17:00 +26°C° 0 mm 5 mps 608 mmHg 54%
    18:00 +23°C° 0.1 mm 4 mps 608 mmHg 64%
    19:00 +21°C° 0.1 mm 4 mps 608 mmHg 75%
    20:00 +20°C° 0.1 mm 3 mps 608 mmHg 85%
    21:00 +19°C° 0.1 mm 3 mps 608 mmHg 87%
    22:00 +19°C° 0.1 mm 3 mps 608 mmHg 89%
    23:00 +19°C° 0.1 mm 3 mps 608 mmHg 91%

    26 September, Tuesday

    Time Temperature Precipitation Wind Pressure Humidity
    00:00 +19°C° 0 mm 3 mps 608 mmHg 90%
    01:00 +18°C° 0 mm 2 mps 607 mmHg 89%
    02:00 +18°C° 0 mm 2 mps 607 mmHg 88%
    03:00 +18°C° 0 mm 2 mps 607 mmHg 88%
    04:00 +18°C° 0 mm 2 mps 607 mmHg 87%
    05:00 +18°C° 0 mm 2 mps 607 mmHg 87%
    06:00 +18°C° 0 mm 2 mps 608 mmHg 84%
    07:00 +19°C° 0 mm 2 mps 609 mmHg 80%
    08:00 +19°C° 0 mm 2 mps 609 mmHg 77%
    09:00 +20°C° 0 mm 2 mps 609 mmHg 72%
    10:00 +22°C° 0 mm 3 mps 609 mmHg 66%
    11:00 +24°C° 0 mm 3 mps 609 mmHg 61%
    12:00 +23°C° 0 mm 4 mps 609 mmHg 59%
    13:00 +25°C° 0 mm 4 mps 608 mmHg 58%
    14:00 +25°C° 0 mm 5 mps 608 mmHg 56%
    15:00 +25°C° 0 mm 5 mps 608 mmHg 59%
    16:00 +23°C° 0 mm 6 mps 608 mmHg 61%
    17:00 +23°C° 0 mm 6 mps 608 mmHg 64%
    18:00 +21°C° 0 mm 6 mps 608 mmHg 73%
    19:00 +20°C° 0 mm 5 mps 608 mmHg 81%
    20:00 +18°C° 0 mm 4 mps 608 mmHg 90%
    21:00 +18°C° 0 mm 4 mps 608 mmHg 90%
    22:00 +18°C° 0 mm 3 mps 608 mmHg 91%
    23:00 +17°C° 0 mm 3 mps 608 mmHg 91%
    Show more